Temperature
18 18 19 19 19 18 18 18 18 18 18 18 18 18 18 18 18 18 18 18 18 18 18 18 18 18 18 18 18 18 18 18 17 17 17 17 17 17 17 17 17 17 17
19 19 19 19 19 18 18 18 18 18 18 18 18 18 18 18 18 18 18 18 18 18 18 18 18 18 18 18 18 18 17 17 17 17 17 17 17 17 17 17 17 17 17
19 19 19 19 19 19 18 18 18 18 18 18 18 18 18 18 18 18 18 18 18 18 18 18 18 18 18 18 18 17 17 17 17 17 17 17 17 17 17 17 17 17 17
19 19 19 19 19 19 19 18 18 18 18 18 18 18 18 18 18 18 18 18 18 18 18 18 18 18 18 17 17 17 17 17 17 17 17 17 17 17 17 17 17 17 17
19 19 19 19 19 19 19 19 18 18 18 18 18 18 18 18 18 18 18 18 18 18 18 18 18 18 18 17 17 17 17 17 17 17 17 17 17 17 17 17 17 17 17
19 19 19 19 19 19 19 19 18 18 18 18 18 18 18 18 18 18 18 18 18 18 18 18 18 18 17 17 17 17 17 17 17 17 17 17 17 17 17 17 17 17 17
19 19 19 19 19 19 19 19 18 18 18 18 18 18 18 18 18 18 18 18 18 18 18 18 18 18 17 17 17 17 17 17 17 17 17 18 18 17 17 17 17 17 17
20 19 19 19 19 19 19 19 18 18 18 18 18 18 18 18 18 18 18 18 18 18 18 18 18 18 17 17 17 17 17 17 17 17 18 18 18 18 17 17 17 17 17
20 20 19 19 19 19 19 19 19 18 18 18 18 18 18 18 18 18 18 18 18 18 18 18 18 18 18 17 17 17 17 17 18 18 18 18 18 18 18 18 17 17 17
20 19 19 19 19 19 19 19 19 18 18 18 18 18 18 18 18 18 18 18 18 18 18 18 18 18 18 17 17 17 17 17 18 18 18 18 18 18 18 18 17 17 17
19 19 19 19 19 19 19 19 19 18 18 18 18 18 18 18 18 18 18 18 18 18 18 18 18 18 18 18 18 17 17 18 18 18 18 18 18 18 18 18 17 17 17
19 19 19 19 19 19 19 19 19 18 18 18 18 18 18 18 18 18 18 18 18 18 18 18 18 18 18 18 18 18 18 18 18 18 18 18 18 18 18 18 17 17 17
19 19 19 19 19 19 19 19 18 18 18 18 18 18 18 18 18 18 18 18 18 18 18 18 18 18 18 18 18 18 18 18 18 18 18 18 18 18 18 18 17 17 17
19 19 19 19 19 19 19 19 19 18 18 18 18 18 18 18 18 18 18 18 18 18 18 18 18 18 18 18 18 18 18 18 18 18 18 18 18 18 18 18 17 17 17
20 19 19 19 19 19 19 19 19 19 18 18 18 18 18 18 18 18 18 18 18 18 18 18 18 18 18 18 18 18 18 18 18 18 18 18 18 18 18 18 17 17 17
20 20 19 19 19 19 19 19 19 19 18 18 18 18 18 18 18 18 18 18 18 18 18 18 18 18 18 18 18 18 18 18 18 18 18 18 18 18 18 17 17 17 17
20 20 20 20 19 19 19 19 19 19 19 19 18 18 18 18 18 18 18 18 18 18 18 18 18 18 18 18 18 18 18 18 18 18 18 18 18 17 17 17 17 17 17
21 20 20 20 19 19 19 19 19 19 19 19 19 18 18 18 18 18 18 18 18 18 18 18 18 18 18 18 18 18 18 18 18 18 18 18 18 17 17 17 17 17 17
21 21 20 20 20 19 19 19 19 19 19 19 19 19 19 19 18 18 18 18 18 18 18 18 18 18 18 18 18 18 18 18 18 18 18 18 17 17 17 17 17 17 17
21 21 20 20 20 20 19 19 19 19 19 19 19 19 19 19 19 18 18 18 18 18 18 18 18 18 18 18 18 18 18 18 18 17 17 17 17 17 17 17 17 17 17
21 21 20 20 20 20 20 19 19 19 19 19 19 19 19 19 19 18 18 18 18 18 18 18 18 18 18 18 18 18 18 18 17 17 17 17 17 17 17 17 17 17 17
21 21 21 20 20 20 20 20 19 19 19 19 19 19 19 19 19 18 18 18 18 18 18 18 18 18 18 18 18 18 17 17 17 17 17 17 17 17 17 17 16 16 16
21 21 21 21 20 20 20 20 19 19 19 19 19 19 19 19 19 19 19 18 19 18 18 18 18 18 18 18 18 18 17 17 17 17 17 17 17 17 17 16 16 16 16
22 22 21 21 21 20 20 20 20 19 19 19 19 19 19 19 19 19 19 19 19 19 18 18 18 18 18 18 18 17 17 17 17 17 17 16 16 16 16 16 16 16 16
22 22 21 21 21 21 20 20 20 20 19 19 19 19 19 19 19 19 19 19 19 19 19 18 18 18 18 18 18 17 17 17 17 17 16 16 16 16 16 16 16 15 15
22 22 21 21 21 21 20 20 20 20 19 19 19 19 19 19 19 19 18 18 18 18 18 18 18 18 18 18 17 17 17 17 17 17 16 16 16 15 15 15 15 15 15
Wind_Speed
3 7 14 16 17 17 18 19 19 19 20 20 20 21 21 21 21 21 21 21 20 20 20 20 20 20 19 19 19 19 19 19 20 19 18 18 18 18 18 18 18 17 19
6 10 14 15 17 17 18 18 18 19 19 19 20 20 21 21 21 20 20 20 20 20 19 19 19 19 18 18 18 18 18 19 19 19 18 17 17 18 18 17 17 16 18
9 11 14 16 17 17 18 18 18 18 18 19 19 19 20 20 20 20 20 19 19 19 18 18 18 18 17 17 17 17 17 17 18 18 17 15 16 18 18 18 18 17 17
11 12 14 16 17 17 17 17 17 18 18 18 18 19 19 19 19 19 19 18 18 18 17 16 16 16 16 16 15 15 15 15 16 16 13 13 14 17 17 17 17 17 16
11 12 15 17 16 17 17 16 16 17 17 17 17 18 18 18 18 18 18 17 17 16 16 15 15 14 14 14 13 12 12 12 13 13 12 12 14 16 17 16 16 16 15
9 12 16 17 16 16 16 16 16 16 16 17 17 17 17 17 17 17 16 16 15 15 14 13 13 12 12 11 11 10 10 10 12 12 13 13 14 16 16 15 15 15 14
8 11 15 16 16 16 15 15 15 15 16 16 16 16 16 16 16 15 14 14 14 13 12 12 11 10 10 9 9 9 9 11 13 13 12 12 14 15 15 14 14 14 13
10 11 14 16 16 15 15 15 14 15 15 15 15 15 15 15 15 14 13 13 12 12 11 10 9 8 7 7 7 8 10 11 14 13 12 12 14 15 14 14 13 13 12
11 10 10 13 14 15 14 14 14 14 14 13 13 13 13 13 13 12 12 11 11 10 9 8 7 6 6 5 5 7 8 11 12 12 12 11 13 14 14 13 13 12 12
9 8 9 10 11 12 12 13 13 13 13 12 12 12 12 11 11 10 10 10 9 8 7 6 5 4 3 3 3 6 8 11 10 10 11 12 14 14 13 13 12 12 11
9 7 7 8 9 10 10 11 12 12 11 11 10 10 9 8 8 7 8 8 8 7 6 4 3 2 0 1 1 4 6 8 9 9 11 13 14 14 13 12 12 11 11
10 8 6 6 7 8 9 9 8 8 9 8 7 7 7 6 6 6 6 7 6 5 4 3 2 2 2 1 1 2 4 8 9 9 11 14 14 14 13 12 12 11 11
11 9 8 7 7 7 6 8 6 6 7 6 6 7 7 6 5 5 4 4 4 4 3 3 3 4 4 3 2 2 4 6 9 10 12 15 14 14 13 12 12 11 10
10 10 8 8 7 7 7 7 7 6 5 6 7 8 8 5 5 4 4 4 4 4 3 3 3 4 5 5 3 4 6 7 9 9 12 15 15 14 14 13 12 11 11
10 9 8 7 7 6 6 5 6 6 6 7 7 8 9 6 4 5 4 5 5 5 4 3 2 3 3 3 2 5 6 7 9 9 10 14 15 14 14 13 12 12 11
10 10 8 8 7 6 4 4 5 6 6 5 6 7 8 7 6 4 3 3 3 5 4 3 3 1 1 0 1 3 5 8 9 10 10 13 15 14 14 13 13 12 12
10 9 9 8 7 6 5 5 5 6 6 5 5 6 7 7 6 5 3 2 3 4 3 2 1 0 0 0 1 1 3 6 8 9 10 10 11 12 13 12 12 12 12
10 9 8 9 7 5 4 4 4 6 6 6 6 6 6 7 7 5 3 2 3 2 1 1 0 0 0 1 1 1 2 3 5 8 9 9 9 9 9 10 10 11 11
11 10 8 7 7 5 4 3 4 4 5 6 6 6 6 6 6 5 3 2 3 2 1 1 1 1 1 1 2 1 1 1 3 5 6 8 9 9 8 9 9 10 9
11 10 8 7 6 5 3 2 1 2 2 4 5 6 7 6 6 5 3 3 2 1 1 1 1 1 1 2 1 0 1 0 1 2 4 5 7 8 8 8 8 8 8
10 9 9 8 7 5 3 2 2 2 2 2 4 7 8 7 6 5 2 2 2 2 2 2 1 1 1 1 1 2 2 1 0 1 2 3 3 5 5 6 6 5 5
11 10 9 9 7 6 4 3 3 3 3 3 3 5 7 7 6 5 4 3 3 2 1 1 1 1 1 1 2 1 1 3 2 1 1 2 2 3 4 5 6 5 5
11 11 10 9 8 7 5 3 1 1 1 0 1 2 3 5 6 5 5 4 3 3 3 3 2 2 1 1 2 3 2 2 1 2 1 1 1 2 2 3 4 5 5
12 11 9 9 8 7 5 4 4 3 2 3 2 2 2 3 4 5 5 5 4 3 3 3 3 2 2 2 1 2 3 4 2 1 2 1 2 2 1 2 2 2 3
11 10 9 8 8 6 6 5 4 3 3 2 1 2 2 1 3 4 4 4 4 3 3 3 2 2 3 3 2 1 1 1 2 2 1 1 2 2 1 2 3 2 2
10 9 8 8 8 7 6 5 5 4 3 2 2 2 2 1 2 2 3 4 4 3 3 3 3 2 2 2 2 1 2 2 2 2 3 2 1 0 2 2 2 2 2
Wind_Direction
92 101 100 97 95 94 93 91 91 91 91 91 92 92 93 95 96 99 99 98 98 98 98 99 100 101 103 105 106 107 108 108 107 108 109 111 112 112 109 110 109 109 110
131 112 104 100 99 97 96 95 94 94 94 94 93 94 94 95 96 98 99 98 98 98 99 99 101 102 103 104 106 108 110 109 108 108 107 107 111 112 112 112 112 114 113
118 112 107 104 102 100 98 97 95 95 96 96 96 97 98 98 98 98 99 99 99 99 99 99 100 100 102 103 105 109 112 112 109 107 104 103 108 111 112 112 114 115 114
120 115 112 109 105 103 101 99 98 98 99 98 98 99 100 101 100 100 100 100 100 101 100 99 101 101 101 102 103 107 111 113 112 112 107 109 112 113 114 114 114 115 115
113 116 116 112 109 106 104 102 101 100 100 100 100 101 103 102 101 101 100 101 101 102 103 103 103 102 103 103 102 103 109 114 113 113 111 111 114 118 117 117 117 117 118
114 121 119 115 113 112 109 107 105 104 104 103 102 102 103 103 103 102 102 102 103 104 105 104 104 103 104 102 99 100 106 111 116 115 118 118 121 122 123 122 122 122 122
122 123 121 120 118 115 114 113 111 109 107 106 105 105 105 106 106 106 106 106 107 107 107 106 104 103 102 98 95 96 98 108 120 121 123 125 128 128 126 126 125 125 126
132 127 127 126 124 121 118 116 115 114 112 112 110 110 110 110 110 111 110 110 111 112 111 108 106 103 98 95 91 91 97 109 125 130 131 133 134 132 131 131 130 130 130
133 130 128 130 130 127 125 124 122 121 119 117 116 116 116 116 115 115 115 117 117 117 118 114 110 105 95 91 90 87 99 112 124 133 139 141 141 138 137 136 137 137 136
133 133 134 136 135 135 133 132 130 128 125 124 125 123 122 121 121 121 122 125 126 126 126 125 122 113 96 87 95 96 107 118 127 139 142 150 150 147 145 144 144 145 145
141 143 144 143 144 145 143 142 139 136 136 135 135 134 130 127 127 128 134 137 137 139 141 148 153 162 132 85 115 115 120 131 137 147 152 159 159 156 154 154 153 154 154
155 158 156 151 160 162 155 147 148 148 149 148 148 147 146 149 152 149 152 152 154 158 162 184 221 262 292 328 354 133 145 146 150 156 162 166 165 163 162 162 163 163 163
159 160 162 164 170 174 161 157 164 167 164 166 168 168 164 159 164 160 161 172 184 192 213 239 262 273 281 286 276 186 169 156 158 163 169 171 171 170 169 169 169 170 171
149 156 160 161 163 172 165 169 176 176 175 176 176 171 161 156 158 168 175 195 213 218 225 244 264 271 272 268 233 178 166 154 159 164 171 176 176 177 176 177 179 180 182
147 151 155 152 154 160 159 174 173 175 176 178 175 173 168 163 166 174 183 191 206 216 213 221 247 265 260 258 199 165 162 159 164 170 176 182 184 184 184 185 186 189 191
155 156 157 153 155 153 151 154 160 167 170 164 169 172 170 167 165 166 174 190 209 214 208 211 219 232 261 316 122 159 161 163 172 175 179 185 190 191 192 192 193 196 199
159 156 157 158 158 155 152 156 152 160 160 159 168 165 167 171 165 159 156 166 209 218 218 204 216 315 278 285 239 192 173 168 174 179 181 183 188 195 198 199 202 204 205
157 155 162 164 162 163 157 150 149 155 161 170 173 172 180 181 173 160 157 185 203 191 176 165 141 355 313 291 282 261 196 179 176 180 179 180 182 188 198 202 204 209 213
161 162 166 161 164 169 165 155 157 164 172 178 175 181 191 194 186 172 180 200 197 169 170 216 156 177 208 253 257 251 231 196 184 174 174 181 184 186 193 201 206 210 210
163 164 164 163 169 166 158 138 132 162 189 185 186 198 198 197 189 180 190 208 179 146 174 205 197 198 199 224 262 328 358 62 161 167 178 179 185 191 195 201 210 219 219
163 164 168 168 175 167 159 161 166 196 212 213 203 206 203 199 193 185 191 194 175 168 193 199 192 207 238 141 67 20 2 3 81 152 157 147 159 175 174 188 194 199 219
170 170 168 171 176 179 179 178 183 189 209 211 214 213 209 204 198 195 188 192 193 185 207 210 177 168 249 137 144 121 358 350 355 338 131 143 160 153 160 181 186 192 204
175 175 174 173 176 184 181 164 163 104 2 288 240 230 223 209 201 196 191 187 188 184 207 218 196 174 215 255 174 155 160 221 289 349 21 78 97 133 159 165 177 199 207
182 177 169 170 174 179 172 166 170 178 202 220 213 214 235 203 197 200 197 193 197 198 205 217 207 193 182 231 249 203 186 170 172 277 353 19 77 94 118 118 120 164 200
178 175 173 170 175 176 174 174 177 195 211 217 193 200 218 222 214 209 203 197 201 206 212 214 206 199 193 206 215 209 198 191 172 168 239 313 43 55 83 95 96 98 126
173 173 173 176 181 179 178 178 183 195 199 178 191 209 231 240 240 228 210 204 205 208 212 214 210 200 200 193 188 186 184 175 184 168 196 210 170 35 55 68 75 83 96
Height
1540 1539 1539 1538 1538 1537 1537 1537 1537 1536 1536 1536 1537 1537 1537 1537 1538 1538 1539 1540 1541 1541 1542 1543 1544 1545 1546 1547 1548 1549 1550 1551 1552 1553 1554 1554 1555 1556 1556 1557 1557 1558 1559
1540 1540 1540 1540 1540 1540 1540 1540 1540 1540 1540 1540 1540 1540 1540 1541 1541 1542 1543 1543 1544 1545 1545 1546 1547 1548 1549 1550 1551 1552 1553 1554 1555 1555 1556 1557 1557 1558 1558 1559 1559 1560 1561
1541 1542 1542 1542 1542 1542 1542 1543 1543 1543 1543 1543 1543 1543 1544 1544 1544 1545 1546 1547 1547 1548 1549 1549 1550 1551 1552 1553 1554 1555 1556 1556 1557 1558 1558 1559 1560 1560 1560 1561 1561 1562 1563
1543 1544 1544 1545 1545 1545 1545 1545 1545 1546 1546 1546 1546 1547 1547 1547 1548 1548 1549 1550 1550 1551 1552 1552 1554 1555 1555 1556 1557 1557 1558 1559 1559 1560 1561 1561 1562 1562 1562 1563 1563 1564 1565
1545 1546 1546 1547 1547 1547 1548 1548 1548 1548 1549 1549 1549 1549 1550 1550 1551 1551 1552 1552 1553 1554 1555 1556 1557 1558 1558 1559 1560 1560 1561 1561 1562 1562 1563 1563 1563 1564 1564 1565 1565 1566 1567
1547 1548 1548 1549 1549 1550 1550 1550 1551 1551 1551 1552 1552 1552 1552 1553 1553 1554 1555 1555 1556 1557 1558 1558 1559 1560 1561 1562 1563 1563 1563 1564 1564 1564 1565 1565 1565 1566 1566 1567 1567 1568 1569
1549 1550 1550 1551 1552 1552 1552 1553 1553 1553 1554 1554 1554 1555 1555 1556 1556 1557 1557 1558 1559 1560 1560 1561 1562 1563 1564 1565 1565 1566 1566 1566 1566 1567 1567 1567 1567 1568 1568 1568 1569 1570 1570
1551 1552 1552 1553 1554 1554 1555 1555 1555 1556 1556 1556 1557 1557 1558 1558 1559 1559 1560 1561 1561 1562 1563 1564 1564 1565 1566 1567 1567 1568 1568 1568 1568 1568 1569 1569 1569 1569 1570 1570 1571 1571 1572
1553 1554 1554 1555 1556 1556 1557 1557 1557 1558 1558 1559 1559 1560 1561 1561 1561 1562 1563 1563 1564 1564 1565 1566 1567 1568 1568 1569 1569 1569 1569 1569 1570 1570 1570 1570 1571 1571 1571 1571 1572 1573 1573
1555 1556 1556 1557 1558 1558 1559 1559 1560 1560 1561 1561 1562 1562 1563 1564 1564 1564 1565 1566 1566 1567 1567 1568 1569 1570 1570 1571 1571 1571 1571 1571 1571 1571 1572 1572 1572 1572 1573 1573 1573 1574 1574
1557 1558 1558 1559 1560 1560 1561 1561 1562 1562 1563 1563 1564 1565 1565 1566 1566 1567 1567 1568 1568 1569 1570 1570 1571 1571 1572 1572 1572 1572 1572 1573 1572 1573 1573 1573 1573 1574 1574 1574 1574 1575 1575
1558 1559 1560 1561 1562 1562 1563 1563 1564 1564 1565 1565 1566 1566 1567 1568 1568 1569 1569 1570 1570 1571 1571 1572 1572 1573 1573 1573 1573 1573 1574 1574 1574 1574 1574 1574 1574 1574 1574 1574 1575 1575 1575
1558 1560 1561 1562 1563 1563 1564 1565 1565 1566 1566 1567 1568 1568 1568 1569 1570 1570 1571 1571 1572 1572 1573 1573 1573 1574 1574 1574 1574 1574 1574 1574 1574 1574 1574 1574 1575 1575 1575 1575 1575 1575 1576
1559 1560 1561 1562 1563 1564 1565 1566 1567 1567 1568 1568 1569 1569 1570 1570 1571 1571 1572 1572 1573 1573 1574 1574 1574 1575 1575 1575 1575 1574 1574 1575 1575 1575 1575 1575 1575 1575 1575 1575 1575 1575 1575
1559 1561 1562 1563 1564 1565 1566 1567 1567 1568 1569 1569 1570 1570 1571 1571 1572 1572 1573 1573 1573 1574 1574 1575 1574 1575 1575 1575 1575 1575 1575 1575 1575 1575 1575 1575 1575 1575 1575 1575 1575 1575 1575
1559 1561 1562 1564 1565 1566 1567 1567 1568 1569 1570 1570 1571 1571 1572 1572 1573 1573 1573 1574 1574 1574 1574 1574 1575 1575 1575 1575 1575 1575 1575 1575 1575 1575 1575 1575 1575 1574 1574 1574 1574 1574 1574
1559 1561 1562 1563 1565 1566 1567 1568 1568 1569 1570 1570 1571 1572 1572 1573 1573 1573 1573 1574 1574 1574 1574 1574 1574 1574 1574 1574 1574 1574 1574 1574 1574 1574 1574 1574 1574 1574 1574 1574 1574 1573 1573
1559 1561 1562 1563 1565 1566 1567 1567 1568 1569 1569 1570 1571 1571 1572 1572 1573 1573 1573 1573 1573 1573 1573 1573 1573 1573 1574 1574 1574 1574 1573 1573 1573 1573 1573 1573 1573 1572 1572 1572 1572 1572 1572
1559 1560 1562 1563 1564 1565 1566 1567 1568 1569 1569 1570 1571 1571 1571 1572 1572 1572 1573 1573 1573 1573 1573 1573 1572 1572 1572 1573 1573 1572 1572 1572 1572 1572 1571 1571 1571 1571 1571 1571 1570 1570 1570
1559 1560 1561 1562 1564 1565 1566 1566 1567 1568 1569 1569 1570 1570 1571 1571 1571 1571 1572 1572 1572 1572 1572 1571 1571 1571 1571 1571 1571 1571 1571 1571 1571 1570 1570 1570 1569 1569 1569 1569 1569 1568 1568
1558 1559 1560 1561 1563 1564 1565 1565 1566 1567 1568 1568 1569 1569 1570 1570 1570 1570 1570 1570 1570 1570 1570 1570 1570 1570 1569 1569 1570 1569 1569 1569 1569 1569 1568 1568 1568 1568 1567 1567 1567 1567 1566
1556 1558 1559 1560 1562 1563 1564 1565 1566 1566 1567 1568 1568 1568 1569 1569 1569 1569 1569 1569 1569 1569 1568 1568 1568 1568 1568 1568 1568 1567 1567 1568 1567 1567 1567 1566 1566 1566 1565 1565 1565 1565 1564
1555 1556 1557 1559 1561 1562 1563 1564 1565 1566 1566 1567 1567 1567 1567 1567 1567 1567 1567 1567 1567 1567 1566 1566 1566 1566 1566 1566 1566 1566 1566 1565 1566 1566 1565 1565 1565 1564 1564 1564 1564 1563 1563
1552 1554 1556 1558 1559 1561 1562 1563 1564 1564 1564 1565 1566 1566 1566 1566 1566 1566 1565 1565 1565 1565 1564 1564 1564 1564 1564 1563 1563 1563 1564 1563 1564 1564 1564 1563 1563 1562 1562 1562 1562 1561 1561
1550 1553 1555 1556 1558 1559 1560 1562 1562 1563 1564 1564 1564 1564 1564 1564 1564 1564 1563 1563 1563 1562 1562 1562 1562 1561 1561 1561 1561 1561 1561 1561 1561 1561 1561 1561 1561 1561 1560 1560 1560 1559 1559
1549 1551 1553 1554 1556 1558 1559 1560 1561 1561 1562 1562 1562 1562 1562 1562 1561 1561 1561 1561 1560 1560 1560 1560 1560 1559 1559 1559 1558 1558 1558 1558 1558 1558 1558 1559 1559 1559 1559 1559 1558 1558 1557